Location: Clarion
(42.7316°N, 93.7330°W)
Time: 08:34:42
(UTC+00:00)

Cosmos 1151 Rocket - Pass Details

Date: 22 April 2026
Orbit: 585 x 605 km, 82.5° (Epoch: 17 May)

Event Time Altitude Azimuth Distance (km) Brightness Sun altitude
Exits shadow 10:07:44 - 180° (S) 2,567 5.9 -13.3°
Reaches altitude 10° 10:09:22 10° 178° (S) 1,900 5.3 -13.0°
Maximum altitude 10:13:32 69° 96° (E) 629 3.3 -12.4°
Drops below altitude 10° 10:17:45 10° 13° (NNE) 1,921 6.2 -11.7°
Sets 10:19:58 0° 11° (N) 2,829 7.1 -11.4°
